Dewpoint
-0 5 8 8 5 -6 -4 1 3 3 3 3 3 2 2 1 -1 -1 -2 -4 -8 -9 -8 -4 -6 -4 -6 -7 -7 -8 -11 -14 -14 -12 -11 -10 -10 -9 -9 -10 -10 -7 -2 8 1
3 -1 3 7 8 5 -5 -4 1 3 3 3 3 3 2 1 -1 -2 -3 -6 -7 -9 -5 -4 -5 -5 -7 -7 -8 -10 -10 -14 -11 -11 -11 -10 -10 -9 -10 -10 -9 -10 3 -5 -7
4 1 -2 3 8 8 5 -5 -4 2 4 4 4 4 3 2 1 -3 -6 -7 -6 -6 -7 -3 -5 -6 -8 -7 -8 -8 -11 -11 -11 -10 -10 -10 -10 -9 -10 -9 -10 -9 -9 1 5
-1 4 -1 -2 5 8 8 5 -5 -3 3 4 4 4 4 3 -0 -3 -4 -4 -6 -5 -6 -4 -6 -8 -8 -9 -8 -8 -9 -8 -9 -8 -8 -10 -9 -9 -9 -10 -9 -9 -8 -8 2
2 -2 3 -2 -0 7 8 8 3 -4 -0 5 5 5 5 4 2 -2 -3 -3 -4 -7 -6 -6 -7 -8 -9 -10 -8 -8 -10 -8 -8 -8 -8 -8 -9 -10 -9 -11 -9 -9 -8 -7 -7
0 1 -2 1 -1 1 6 8 7 -3 -4 4 6 6 6 5 2 -0 -1 -2 -3 -4 -6 -7 -8 -7 -9 -9 -8 -7 -7 -7 -7 -8 -9 -8 -12 -8 -13 -13 -10 -9 -9 -8 -8
0 0 -1 2 0 -1 3 7 7 6 -3 2 7 7 7 5 3 1 -1 -2 -4 -5 -5 -5 -5 -7 -7 -8 -5 -6 -7 -12 -10 -11 -11 -9 -10 -10 -13 -14 -11 -7 -4 -3 -2
-0 1 1 0 -0 -1 0 7 8 7 1 2 8 8 7 5 3 2 1 1 -1 -4 -4 -3 -4 -5 -6 -4 -6 -7 -7 -11 -12 -10 -9 -7 -14 -15 -14 -11 -10 -6 -3 -1 -1
1 1 2 1 -1 -2 -2 4 7 8 6 6 8 8 6 5 3 1 1 1 -1 -1 -2 -3 -4 -6 -5 -8 -9 -8 -14 -11 -13 -14 -12 -9 -14 -14 -7 -7 -6 -6 -6 -6 -4
3 2 2 2 -1 -1 -1 2 7 8 7 8 8 7 5 4 3 2 1 2 -0 -2 -2 -3 -4 -5 -6 -8 -10 -12 -9 -12 -12 -10 -10 -11 -10 -11 -11 -11 -10 -8 -7 -7 -8
3 3 2 3 1 -0 0 1 7 7 7 5 5 3 1 4 3 2 2 2 0 -2 -2 -3 -4 -5 -8 -7 -11 -11 -11 -13 -15 -12 -8 -11 -12 -14 -14 -11 -11 -11 -13 -14 -14
0 3 3 2 2 1 1 4 7 6 7 6 4 5 2 2 3 2 2 0 0 -1 -3 -2 -2 -8 -9 -10 -7 -9 -10 -11 -12 -13 -9 -11 -11 -12 -11 -11 -12 -13 -14 -13 -12
-1 2 3 3 2 1 2 1 6 7 5 5 5 5 5 5 2 1 1 -1 -1 -1 -3 -2 -7 -8 -7 -6 -6 -8 -8 -9 -10 -12 -12 -11 -10 -11 -11 -7 -9 -10 -10 -9 -8
-1 2 3 2 2 1 2 -2 3 7 7 5 5 5 4 4 4 1 -0 -2 -2 -2 -3 -3 -6 -5 -5 -5 -8 -7 -10 -9 -10 -9 -11 -5 -10 -13 -11 -7 -6 -5 -5 -3 -1
1 2 3 2 3 3 0 3 3 5 8 3 4 3 4 2 -2 1 0 -2 -2 -3 -3 -3 -4 -5 -4 -7 -8 -7 -8 -7 -8 -6 -4 -6 -3 -12 -8 -7 -7 -6 -6 -4 -1
1 2 3 2 2 2 3 3 3 5 8 3 3 5 3 3 -1 -2 0 -1 -3 -3 -3 -5 -6 -6 -6 -8 -7 -6 -3 -2 -1 -2 -2 -7 -6 -10 -13 -7 -8 -9 -7 -2 -0
-1 3 3 2 1 3 3 3 5 6 3 3 5 4 3 4 2 -1 1 1 0 1 -1 -4 -4 -6 -5 -6 -5 -4 -2 -2 -2 0 -5 -12 -9 -6 -7 -7 -7 -5 -5 -2 1
-1 2 3 2 2 3 3 4 4 3 4 -0 2 3 4 0 3 -0 -1 2 -1 -3 -5 -3 -1 -3 -5 -6 -3 -3 -2 -8 -6 -7 -7 -2 -2 -7 -7 -6 -6 -5 -2 -1 3
0 3 3 2 3 3 3 4 3 5 -0 4 1 5 3 -1 1 1 -1 1 -1 -3 -4 -4 -5 -7 -5 -7 -5 -2 -1 -7 -3 -5 -2 -9 -8 -8 -0 -3 -1 -3 -2 -0 1
0 3 3 3 3 3 3 3 4 -1 1 1 5 4 3 0 0 1 -0 -2 -2 -3 -5 -8 -4 -6 -4 -5 -5 -4 -5 1 0 -2 -4 -10 -10 -8 -2 -1 -2 -0 0 1 3
1 3 3 3 3 3 3 3 0 0 1 3 5 1 -0 0 -1 2 -2 -6 -3 -3 -4 -7 -6 -1 -4 -1 -3 -4 -1 -3 -3 -3 -3 -4 -8 -9 -5 -4 -2 -2 -1 2 4
3 2 3 3 3 2 3 3 -0 -1 -0 4 4 2 -1 -1 0 2 -1 -3 -4 -3 1 -2 -4 -3 -0 -5 -5 -6 -4 -2 2 -1 0 -0 -1 -0 1 -0 1 -0 1 3 5
1 0 3 2 3 3 2 3 1 -1 -1 3 4 3 -1 -1 2 -1 -2 -3 -5 -2 2 1 1 1 -4 1 1 -1 -4 -5 -2 -2 1 6 -0 -2 -0 1 2 2 3 5 6
-0 2 1 2 2 3 3 2 1 -1 -0 0 4 3 2 1 -1 -1 -2 -3 -4 -3 -1 -0 -1 -1 -1 -1 -2 3 -2 -2 -1 6 4 0 -2 -3 2 2 2 2 3 4 7
-0 1 1 2 1 3 1 0 2 2 1 1 4 3 5 5 2 -0 -3 -0 -2 -2 2 1 1 -0 -4 -9 -5 -1 0 -2 -1 2 5 1 -3 -5 -4 -2 -2 0 2 5 7
-1 0 1 2 0 2 2 3 0 0 2 3 4 4 3 6 3 1 -1 1 0 -1 1 3 5 1 2 -5 -5 -2 -1 -1 -1 -1 -1 -2 -2 -5 -5 -0 2 3 4 6 7
-0 1 0 2 2 2 2 1 0 0 1 -0 3 5 4 4 0 -2 -2 1 1 2 3 3 5 6 6 -0 -0 8 5 0 0 -1 -1 3 1 -2 -2 -1 2 3 4 5 6
Wind_Speed
21 21 24 23 26 24 24 24 22 20 18 15 14 13 13 14 12 11 10 8 7 6 6 4 3 4 5 6 5 3 5 7 4 6 6 3 1 3 3 4 1 1 0 5 5
21 21 21 24 27 26 25 25 24 22 20 18 15 14 14 14 14 12 12 12 11 8 5 7 7 5 7 6 6 9 6 4 4 2 4 4 3 4 4 6 6 3 3 6 4
20 21 21 22 24 28 28 26 24 23 21 19 17 14 13 12 11 3 5 6 7 8 8 6 6 7 9 7 8 5 8 1 2 3 4 6 8 2 5 10 10 6 6 7 7
25 22 22 22 23 25 26 27 25 23 22 19 17 16 12 6 4 4 6 5 1 6 7 7 8 9 8 9 7 8 6 6 1 3 5 9 9 8 11 16 9 8 10 11 12
24 26 23 23 24 24 25 26 25 24 23 20 17 16 12 9 12 8 4 5 4 2 5 8 11 10 10 6 7 10 6 6 8 10 13 13 16 11 22 17 17 16 16 17 18
26 26 28 24 23 24 23 25 28 26 23 21 17 15 10 16 11 16 17 13 9 4 5 5 6 8 4 7 9 3 5 9 8 14 11 11 15 4 18 11 12 13 16 16 16
30 27 28 27 24 23 23 21 26 26 22 21 17 14 15 24 12 9 10 11 11 10 5 5 5 7 4 4 3 4 9 11 14 14 11 9 13 15 20 14 14 10 8 8 10
30 29 28 29 27 23 24 20 21 24 22 19 16 12 15 13 24 21 11 11 9 9 7 5 5 6 6 2 4 7 5 10 7 8 5 8 11 6 4 8 12 10 11 11 12
28 29 30 30 30 24 21 23 17 22 17 15 15 12 17 11 28 30 24 15 9 8 7 7 6 7 6 10 9 9 12 10 6 7 5 12 10 2 0 5 11 15 15 14 17
30 30 31 31 31 26 21 24 15 23 20 17 18 7 21 15 19 18 24 23 13 11 8 10 9 10 11 10 13 14 12 12 12 5 8 11 17 15 16 16 20 22 23 22 23
32 33 32 33 31 28 21 21 15 13 39 29 21 18 4 16 8 11 17 18 18 17 16 16 12 15 19 18 18 8 10 14 14 4 7 14 21 19 19 21 23 27 26 28 30
38 33 33 32 31 30 24 28 25 5 8 33 22 29 23 3 12 17 16 20 23 22 21 10 21 19 12 15 14 15 15 18 17 11 9 17 21 16 18 20 28 31 29 28 26
39 34 33 30 30 32 34 44 31 12 4 27 39 29 16 20 7 21 21 29 22 24 26 25 6 21 15 15 17 17 18 17 18 17 16 21 25 19 13 15 20 26 28 24 23
36 36 33 28 32 38 42 39 36 15 4 11 30 22 31 15 16 18 25 19 15 26 24 20 29 11 19 23 18 19 15 18 17 12 10 3 10 13 13 14 16 20 20 19 15
36 37 35 40 37 45 37 35 25 20 7 18 27 18 34 29 13 30 25 24 19 16 25 18 12 24 20 21 17 16 6 13 13 12 12 14 6 9 6 11 15 14 16 17 16
34 37 37 40 43 43 35 13 20 9 9 12 24 26 32 44 27 14 36 24 21 16 21 26 10 16 26 19 16 8 10 7 6 7 12 17 16 13 14 16 11 13 13 13 14
33 36 42 45 60 38 30 24 9 17 0 7 24 32 38 28 37 23 27 31 18 18 23 21 20 8 10 16 15 20 14 7 9 7 12 7 13 17 6 6 10 11 11 10 12
33 35 42 52 46 38 32 14 12 24 24 11 20 31 35 30 29 35 27 27 32 28 16 18 16 24 18 17 12 27 22 9 11 14 12 4 10 8 9 11 23 17 14 11 10
30 35 42 50 46 38 28 17 17 7 28 11 22 32 32 29 19 30 33 33 34 32 25 22 21 19 21 17 19 19 22 15 11 12 7 12 16 13 10 12 12 19 21 19 13
36 38 45 47 47 43 17 20 7 22 10 30 25 29 32 38 26 33 35 36 36 36 27 15 11 16 21 23 24 17 15 10 9 8 14 16 17 12 6 13 17 16 17 14 13
33 20 36 52 53 31 13 9 22 19 21 17 27 23 29 35 31 37 34 22 37 35 31 22 15 9 18 25 23 17 15 13 12 13 13 18 14 4 9 11 12 13 14 11 13
23 4 25 59 13 7 15 10 11 15 30 9 10 21 25 30 33 32 32 30 43 30 35 31 15 14 23 14 23 27 27 28 10 15 13 15 20 5 7 7 7 5 4 8 11
14 4 32 49 10 6 14 9 12 18 17 8 8 15 18 27 27 26 29 29 29 30 27 23 13 15 18 13 15 27 31 22 25 8 19 13 12 9 9 8 7 5 5 7 10
7 4 6 22 19 8 16 17 24 23 19 17 6 19 24 24 28 27 24 16 23 35 25 27 14 25 21 31 16 23 29 31 23 14 23 19 30 16 12 10 6 8 8 10 16
6 5 9 8 10 16 21 14 19 12 20 24 11 26 25 19 30 19 26 17 22 34 15 17 20 24 30 28 14 25 29 30 30 30 23 29 28 29 22 18 18 15 12 15 18
8 5 6 8 21 20 17 15 25 24 15 19 18 24 29 25 27 22 26 23 17 21 26 19 8 19 24 28 19 19 22 27 33 35 31 31 27 24 26 12 10 14 15 19 22
28 14 14 10 12 14 14 27 29 28 24 26 28 23 29 32 25 26 25 21 13 21 26 21 10 12 15 18 18 9 20 28 25 31 27 26 31 24 24 19 18 23 24 26 25
Wind_Direction
245 244 245 257 258 242 239 239 241 246 256 253 264 279 290 295 295 309 298 250 256 262 221 222 216 203 195 205 199 218 240 229 206 202 133 155 237 76 326 234 322 190 178 130 179
256 243 244 244 257 259 249 243 240 241 247 259 263 274 288 299 305 301 270 264 251 242 225 220 210 198 201 201 197 230 250 229 32 104 145 233 294 5 255 219 216 205 179 178 202
257 252 243 240 240 256 256 249 242 240 241 249 262 271 280 301 315 227 253 261 237 222 220 227 217 212 224 207 194 182 254 18 159 224 263 276 275 174 252 246 242 240 224 228 209
256 255 250 241 238 241 255 255 247 243 238 242 251 263 274 282 263 166 126 62 273 216 211 229 215 213 229 218 195 233 233 243 186 214 267 268 295 259 253 260 267 265 265 259 246
259 254 250 246 240 236 238 254 253 246 238 235 245 255 271 250 238 227 213 314 318 242 210 224 225 223 226 223 202 231 231 233 244 258 265 275 268 277 267 259 259 263 261 263 258
257 254 252 250 245 239 234 235 255 246 242 231 236 247 251 248 250 246 255 266 259 269 230 209 246 228 246 238 239 147 235 251 254 256 252 258 271 246 263 263 249 252 257 255 249
264 254 250 250 244 242 234 226 237 248 242 231 231 236 243 236 248 231 239 235 237 231 246 221 219 220 192 210 224 239 265 248 242 250 246 245 245 235 263 264 261 240 227 223 220
263 258 246 247 247 239 233 227 223 240 237 227 232 236 248 247 246 243 239 246 238 221 217 218 202 225 226 161 197 242 251 255 133 197 197 214 269 199 278 246 244 245 242 239 244
264 257 248 241 247 241 236 228 216 216 225 211 227 225 251 244 244 241 240 236 231 226 204 205 198 225 199 225 233 209 254 220 236 218 218 220 276 189 6 270 260 259 252 251 256
257 258 251 242 239 239 234 220 216 199 193 202 206 209 243 226 232 228 225 227 212 208 197 200 214 219 220 209 226 236 227 228 247 144 214 237 254 264 266 270 268 262 262 261 263
248 251 250 244 234 232 224 215 229 192 194 191 195 205 53 223 200 209 210 204 206 212 212 203 217 217 214 219 247 280 259 264 266 181 280 261 270 270 268 262 258 263 262 264 266
243 243 241 238 230 226 216 211 212 211 206 211 213 212 222 145 207 207 190 187 194 211 210 196 226 227 233 227 238 236 255 262 279 279 252 270 273 274 263 254 258 262 260 257 259
244 236 231 227 220 221 215 220 205 229 258 210 210 203 207 221 218 199 187 200 200 208 209 219 225 213 217 215 224 231 240 252 263 292 276 266 273 260 247 254 251 249 256 257 252
242 226 220 210 212 215 222 218 220 237 235 215 199 220 205 173 224 202 197 185 210 216 210 234 239 199 214 230 218 239 223 254 263 278 271 15 288 276 264 248 248 249 244 244 238
229 218 213 201 200 204 209 212 208 224 245 179 186 193 188 195 148 207 197 202 210 201 199 210 209 213 221 220 214 244 203 226 240 255 282 237 253 284 190 238 245 239 246 247 237
221 209 207 204 209 217 204 177 184 226 234 205 157 178 180 202 207 173 191 205 217 203 212 228 206 216 227 222 202 153 158 174 210 254 254 249 237 262 247 218 243 263 259 228 223
209 207 205 200 209 199 192 183 200 221 224 214 174 176 185 188 200 189 190 197 189 193 208 210 211 208 207 198 190 193 184 205 223 215 250 235 244 239 265 207 237 241 256 223 215
207 206 208 206 204 191 183 194 211 212 207 198 188 187 197 177 198 193 192 199 209 211 209 207 208 204 189 193 189 198 191 203 224 231 258 181 242 258 227 245 233 241 246 238 221
208 207 207 209 201 189 187 206 205 166 222 243 191 190 202 189 176 188 198 201 202 204 214 203 230 185 193 197 172 195 214 238 274 262 265 246 244 237 200 228 232 235 240 235 243
199 203 206 205 198 178 191 213 208 238 225 210 208 198 198 190 189 188 195 205 206 205 206 191 214 195 191 202 217 192 189 194 209 225 239 245 244 257 201 222 226 235 236 235 236
189 201 207 201 191 187 198 204 222 215 243 235 226 200 211 194 196 192 192 193 202 197 205 213 210 159 177 203 194 196 201 213 221 227 237 265 264 263 224 222 221 225 229 233 232
191 186 184 179 185 188 198 187 215 232 214 246 270 248 212 199 202 192 208 204 190 192 196 205 207 200 199 212 222 212 213 203 198 204 232 255 264 117 131 160 175 189 229 237 227
162 145 174 178 200 170 194 171 221 224 222 211 240 239 236 203 200 198 213 203 185 189 185 185 208 206 211 197 214 222 221 221 225 255 221 214 255 188 175 179 189 241 220 214 210
179 143 175 189 201 182 187 202 220 222 232 210 261 243 255 212 201 200 212 189 195 192 183 174 205 208 203 213 198 206 218 221 218 219 236 226 245 222 180 186 193 228 237 206 204
213 220 175 178 185 196 205 197 209 219 214 205 237 237 261 212 200 209 204 180 195 199 181 181 205 207 225 220 204 209 214 213 216 219 221 237 238 247 251 248 270 259 238 209 204
199 195 180 175 192 189 200 211 225 219 204 217 219 223 236 245 202 197 192 188 179 191 190 194 205 205 227 229 226 233 217 220 219 226 231 242 247 247 253 250 238 219 213 210 209
209 199 166 163 171 177 196 217 226 224 225 219 208 230 220 230 232 221 200 193 177 177 188 191 197 187 223 211 214 233 225 218 220 225 230 233 243 246 256 256 236 240 221 215 209
Height
1508 1510 1513 1515 1515 1517 1519 1521 1522 1525 1527 1527 1528 1528 1527 1526 1526 1527 1528 1527 1526 1525 1526 1527 1527 1528 1529 1529 1529 1528 1519 1511 1511 1515 1515 1521 1519 1523 1523 1520 1521 1522 1521 1523 1522
1503 1505 1507 1510 1511 1514 1516 1517 1519 1521 1524 1525 1525 1526 1526 1525 1524 1524 1524 1522 1523 1524 1525 1528 1527 1527 1526 1526 1527 1523 1517 1510 1516 1517 1518 1520 1521 1523 1521 1519 1519 1520 1521 1521 1522
1499 1500 1502 1504 1506 1509 1512 1514 1516 1518 1520 1522 1523 1524 1525 1525 1524 1522 1520 1520 1521 1522 1523 1525 1526 1526 1524 1523 1523 1521 1516 1516 1519 1522 1522 1519 1520 1523 1521 1517 1516 1517 1519 1520 1520
1494 1495 1497 1499 1501 1504 1507 1510 1512 1514 1516 1518 1520 1522 1523 1525 1522 1518 1518 1519 1520 1520 1522 1524 1524 1523 1520 1518 1520 1520 1519 1521 1519 1522 1521 1519 1518 1520 1519 1515 1516 1516 1516 1516 1517
1489 1490 1492 1494 1496 1498 1502 1506 1509 1511 1513 1515 1517 1519 1522 1523 1520 1517 1517 1519 1520 1521 1521 1523 1522 1521 1517 1517 1520 1518 1517 1521 1520 1521 1520 1519 1517 1518 1512 1514 1514 1513 1512 1511 1512
1483 1484 1486 1489 1492 1493 1497 1501 1504 1507 1509 1511 1514 1516 1520 1520 1516 1514 1515 1517 1519 1521 1521 1520 1521 1521 1518 1518 1518 1518 1518 1517 1517 1516 1516 1517 1512 1516 1504 1507 1508 1509 1508 1506 1506
1475 1478 1480 1483 1486 1490 1493 1496 1501 1503 1505 1508 1511 1513 1513 1510 1511 1511 1513 1515 1516 1518 1520 1519 1520 1521 1518 1517 1520 1520 1517 1510 1510 1511 1511 1513 1510 1504 1502 1502 1503 1503 1503 1503 1503
1468 1470 1474 1478 1482 1486 1489 1492 1496 1499 1501 1505 1508 1511 1505 1502 1507 1508 1511 1512 1514 1516 1517 1518 1518 1520 1518 1520 1518 1515 1516 1507 1501 1507 1507 1509 1498 1492 1498 1500 1499 1499 1500 1501 1500
1460 1463 1467 1472 1476 1481 1485 1489 1490 1495 1498 1502 1506 1509 1502 1497 1499 1504 1508 1511 1514 1515 1515 1516 1518 1516 1517 1514 1512 1511 1504 1503 1499 1503 1501 1503 1493 1494 1498 1498 1498 1497 1495 1495 1496
1452 1455 1459 1465 1470 1477 1482 1486 1487 1490 1493 1500 1501 1510 1497 1491 1495 1497 1502 1506 1511 1513 1515 1515 1515 1510 1508 1505 1505 1497 1505 1497 1498 1496 1500 1495 1493 1491 1494 1494 1492 1491 1489 1489 1488
1443 1447 1452 1457 1465 1472 1480 1484 1487 1483 1477 1471 1479 1484 1483 1487 1490 1492 1496 1501 1508 1510 1507 1509 1507 1499 1495 1499 1494 1500 1498 1495 1488 1495 1504 1494 1486 1483 1486 1487 1485 1481 1481 1480 1479
1432 1437 1443 1451 1459 1466 1474 1471 1469 1474 1473 1473 1477 1479 1482 1483 1486 1489 1491 1496 1500 1497 1503 1507 1495 1491 1495 1497 1501 1501 1500 1494 1487 1490 1499 1487 1477 1477 1478 1478 1476 1472 1471 1470 1470
1421 1427 1435 1444 1453 1460 1460 1454 1467 1467 1468 1461 1466 1471 1475 1483 1480 1480 1485 1487 1489 1491 1488 1489 1481 1489 1495 1499 1502 1498 1497 1493 1493 1486 1488 1482 1473 1463 1462 1467 1465 1463 1462 1463 1463
1410 1418 1428 1439 1450 1449 1446 1455 1463 1467 1464 1450 1453 1457 1468 1473 1474 1476 1478 1483 1484 1478 1484 1487 1484 1488 1491 1493 1494 1493 1490 1496 1494 1496 1487 1487 1476 1458 1457 1457 1456 1454 1455 1457 1459
1396 1408 1418 1424 1431 1436 1437 1452 1462 1466 1446 1429 1433 1445 1451 1457 1455 1464 1473 1478 1472 1475 1479 1469 1479 1480 1488 1480 1487 1490 1491 1494 1493 1491 1490 1481 1490 1447 1451 1454 1448 1447 1448 1451 1454
1387 1398 1409 1419 1425 1424 1442 1450 1461 1460 1427 1413 1414 1424 1438 1445 1451 1456 1464 1471 1473 1472 1474 1468 1475 1476 1470 1477 1485 1488 1494 1496 1495 1491 1490 1467 1470 1450 1441 1442 1442 1442 1443 1447 1449
1381 1390 1398 1407 1398 1423 1435 1446 1449 1431 1423 1410 1405 1414 1415 1424 1440 1445 1454 1456 1455 1467 1464 1466 1466 1472 1474 1475 1482 1484 1486 1493 1496 1495 1469 1446 1451 1447 1437 1437 1438 1440 1441 1443 1446
1375 1383 1389 1393 1408 1419 1429 1436 1425 1415 1419 1400 1402 1409 1408 1407 1423 1430 1440 1446 1448 1444 1443 1455 1465 1461 1462 1459 1468 1473 1472 1467 1483 1467 1452 1454 1452 1434 1428 1433 1436 1438 1441 1442 1446
1373 1378 1384 1388 1402 1410 1418 1411 1408 1400 1404 1409 1396 1400 1403 1400 1403 1420 1421 1421 1423 1430 1438 1441 1441 1441 1451 1456 1458 1467 1465 1458 1469 1459 1469 1439 1426 1420 1430 1431 1434 1433 1436 1438 1442
1362 1371 1374 1384 1396 1399 1406 1401 1402 1398 1400 1399 1393 1387 1387 1383 1390 1400 1404 1404 1413 1420 1425 1423 1443 1439 1448 1456 1452 1450 1455 1476 1470 1478 1471 1431 1429 1423 1427 1428 1428 1429 1432 1435 1438
1360 1365 1365 1377 1387 1389 1387 1394 1396 1397 1400 1400 1392 1378 1374 1377 1376 1381 1378 1380 1399 1410 1420 1420 1427 1442 1440 1438 1439 1449 1450 1449 1447 1449 1450 1439 1422 1399 1411 1415 1419 1423 1426 1430 1435
1355 1356 1360 1360 1369 1375 1377 1386 1389 1386 1396 1400 1395 1377 1366 1371 1378 1379 1374 1376 1381 1394 1408 1408 1422 1433 1434 1431 1434 1431 1432 1434 1444 1440 1444 1439 1411 1408 1411 1413 1419 1422 1426 1429 1431
1349 1356 1356 1357 1356 1366 1374 1378 1383 1378 1383 1397 1392 1382 1367 1362 1376 1373 1374 1373 1378 1388 1395 1407 1417 1427 1431 1434 1432 1423 1420 1426 1428 1428 1431 1444 1418 1404 1412 1416 1420 1422 1424 1427 1430
1348 1350 1352 1352 1358 1363 1367 1365 1370 1375 1376 1384 1387 1384 1372 1362 1363 1365 1368 1371 1377 1378 1385 1393 1396 1397 1399 1391 1403 1427 1416 1416 1422 1440 1421 1418 1404 1405 1415 1415 1418 1421 1423 1423 1426
1341 1340 1338 1343 1351 1356 1360 1360 1364 1368 1371 1376 1379 1382 1379 1365 1359 1357 1362 1370 1377 1378 1388 1389 1391 1391 1383 1382 1391 1396 1404 1407 1415 1412 1417 1402 1403 1393 1400 1403 1407 1412 1416 1419 1422
1336 1334 1332 1332 1343 1349 1352 1354 1353 1361 1363 1366 1375 1374 1373 1366 1350 1350 1351 1360 1360 1373 1379 1382 1385 1386 1391 1388 1388 1393 1391 1397 1397 1394 1401 1395 1395 1390 1396 1401 1407 1410 1412 1415 1417
1326 1326 1325 1332 1334 1345 1344 1340 1341 1349 1353 1355 1360 1365 1357 1355 1347 1344 1348 1352 1351 1361 1369 1378 1381 1386 1395 1388 1393 1411 1394 1380 1385 1386 1388 1394 1377 1390 1388 1393 1401 1403 1404 1405 1408